Regional Weather Roundup
Issued by NWS

Home | Current Version | Previous Version | Text Only | Print | Product List | Glossary On
Versions: 1 2 3 4 5 6 7 8 9 10 11 12 13 14 15 16 17 18 19 20 21 22 23 24 25 26 27 28 29 30 31 32 33 34 35 36 37 38 39 40 41 42 43 44 45 46 47 48 49 50
000
ASUS44 KFWD 222215
RWRTX
NORTH TEXAS HOURLY WEATHER ROUNDUP
NATIONAL WEATHER SERVICE FORT WORTH TX
500 PM CDT WED MAR 22 2017

NOTE: "FAIR" INDICATES FEW OR NO CLOUDS BELOW 12,000 FEET WITH NO
SIGNIFICANT WEATHER AND/OR OBSTRUCTIONS TO VISIBILITY.

TXZ118-119-222300-
DALLAS/FORT WORTH METROPLEX

CITY           SKY/WX    TMP DP  RH WIND       PRES   REMARKS
DFW AIRPORT    PTSUNNY   83  63  50 SE16      30.01F
DALLAS LOVE    PTSUNNY   82  62  50 SE20      30.03F
FTW MEACHAM    MOSUNNY   84  61  45 S14       30.01F
DAL-EXECUTIVE  MOSUNNY   81  63  54 S12G17    30.03F
FTW-ALLIANCE   MOSUNNY   83  62  49 S16       30.01F
FTW-NAS-JRB    SUNNY     83  62  49 S10       30.02F
FTW-SPINKS     MOSUNNY   82  61  47 SE16      30.05F
ARLINGTON      MOSUNNY   82  61  48 SE20G25   30.03F
GRAND PRAIRIE  MOSUNNY   81  61  50 SE10G16   30.05F
MESQUITE         N/A     79  64  61 SE14      30.06F
LANCASTER      MOSUNNY   79  63  59 S9        30.06F
$$

TXZ091>094-102>105-117-120-121-131>134-222300-
NORTH CENTRAL TEXAS

CITY           SKY/WX    TMP DP  RH WIND       PRES   REMARKS
SHRMAN/DENISON PTSUNNY   68  62  79 E17       30.08F
GAINESVILLE    MOSUNNY   72  62  70 E16       30.06F
BOWIE          PTSUNNY   81  65  56 SE9G16    30.01F
BRIDGEPORT     MOSUNNY   85  62  45 SE8       30.02F
DECATUR        MOSUNNY   83  61  47 SE9G18    30.02F
DENTON         PTSUNNY   82  64  54 S15       30.02F
MCKINNEY       SUNNY     75  66  73 SE15      30.05F
BONHAM         PTSUNNY   68  63  83 E15       30.10F
GREENVILLE     CLOUDY    72  63  73 E9        30.09F
ROCKWALL       SUNNY     77  64  64 SE13G21   30.07S
TERRELL        MOSUNNY   76  63  64 SE10      30.07F
WAXAHACHIE     MOSUNNY   80  64  58 SE12G18   30.05F
CLEBURNE       SUNNY     81  64  57 S13G20    30.05F
GRANBURY       SUNNY     85  60  44 SE9G17    30.02F
$$

TXZ083>090-098>101-113>116-127>130-139>142-154-155-222300-
WESTERN NORTH TEXAS

CITY           SKY/WX    TMP DP  RH WIND       PRES   REMARKS
WICHITA FALLS  MOSUNNY   80  58  46 SE10      30.00F
WF-KICKAPOO    SUNNY     80  58  47 S6        30.02F
VERNON         SUNNY     78  47  33 SE8       30.02F
ABILENE        SUNNY     83  57  41 SE17      30.00F
ABILENE-DYESS  SUNNY     85  60  44 S16       29.98F
GRAHAM         SUNNY     87  60  41 SE9       29.98F
BRECKENRIDGE   MOSUNNY   86  56  35 S15G22    29.99F HAZE
CISCO          SUNNY     82  61  47 SE17G25   30.02F
RANGER         SUNNY     82  59  44 S15       30.02F
MINERAL WELLS  MOSUNNY   85  59  41 SE17G26   29.99F
STEPHENVILLE   SUNNY     83  59  43 S10       30.06F
COMANCHE       SUNNY     83  60  46 SE13G22   30.02F
BROWNWOOD      SUNNY     82  59  44 S13G23    30.01F
COLEMAN        SUNNY     82  57  41 SE17G23   30.01F
$$

TXZ143>147-156>162-174-175-222300-
CENTRAL TEXAS

CITY           SKY/WX    TMP DP  RH WIND       PRES   REMARKS
WACO           SUNNY     80  62  54 S13       30.05F
WACO-TSTC      MOSUNNY   82  59  44 S13       30.06F
WACO-MCGREGOR  SUNNY     83  59  44 S13       30.05F
HILLSBORO      MOSUNNY   79  64  59 S14G20    30.05F
CORSICANA      LGT RAIN  80  63  55 S12       30.07F
MEXIA          MOSUNNY   81  60  49 S13G21    30.06F
HEARNE         SUNNY     82  60  47 S10       30.08S
CAMERON        SUNNY     83  60  46 S13G18    30.06F
TEMPLE         SUNNY     80  61  52 S18       30.05F
KILLEEN        SUNNY     80  58  47 SE16      30.04F
KILLEEN-SKYLRK SUNNY     81  60  48 S15G21    30.05F
FORT HOOD      SUNNY     81  59  46 S13       30.03F
GATESVILLE     SUNNY     81  59  47 S14       30.06F
HAMILTON       SUNNY     82  59  44 SE15      30.04F
LAMPASAS       SUNNY     81  60  49 S14       30.04F
$$

TXZ095>097-106>112-122>126-135>138-148>153-164>167-222300-
EAST TEXAS

CITY           SKY/WX    TMP DP  RH WIND       PRES   REMARKS
PARIS          MOSUNNY   72  57  60 SE7       30.12F
SULPHUR SPRNGS PTSUNNY   75  63  66 CALM      30.12F
MOUNT PLEASANT MOSUNNY   78  57  48 SE9       30.11F
GILMER         MOSUNNY   78  59  50 E9        30.09F
MINEOLA        MOSUNNY   75  61  60 S8        30.09F
TYLER          PTSUNNY   76  61  59 CALM      30.09F
LONGVIEW       PTSUNNY   79  60  52 S3        30.09F
MARSHALL       SUNNY     75  55  48 CALM      30.12F
ATHENS         PTSUNNY   75  61  60 SE8       30.07F
PALESTINE      SUNNY     81  61  50 S6        30.09F
JACKSONVILLE   MOSUNNY   78  61  56 SE5       30.12F
HENDERSON      PTSUNNY   78  60  52 SW6       30.12F
CENTER         PTCLDY    84  58  42 CALM      30.11F
NACOGDOCHES    SUNNY     81  57  44 SW9       30.08S
LUFKIN         SUNNY     80  57  45 S9        30.09S
$$

SUPPLEMENTAL OBSERVATIONS (CENTRAL)

CITY           SKY/WX    TMP DP  RH WIND       PRES   REMARKS
DENISON DAM      N/A     66  59  77 E9          N/A
CADDO GRASSLND   N/A     66  59  77 SE6         N/A
PAT MAYSE LAKE   N/A     66  57  72 E7          N/A
GREENVILLE       N/A     72  63  73 E6          N/A
CEDAR HILL       N/A     82  61  47 SE10        N/A
ATHENS           N/A     77  63  61 SE8         N/A
LAKE LIMESTONE   N/A     82  57  42 S10         N/A
MCGREGOR         N/A     81  59  47 S16         N/A
TEMPLE           N/A     81  59  47 SE13        N/A
$$

SUPPLEMENTAL OBSERVATIONS (WEST)

CITY           SKY/WX    TMP DP  RH WIND       PRES   REMARKS
MILLERS CREEK    N/A     81  57  44 SE8         N/A
POSSUM KINGDOM   N/A    N/A N/A N/A SE12        N/A
LBJ GRASSLAND    N/A     84  61  45 SE10G18     N/A
GRANBURY         N/A     84  61  45 SE13G22     N/A
COMANCHE         N/A     82  59  44 SE17G25     N/A
HAMBY            N/A     84  59  42 S9G17       N/A
IVIE RESERVOIR   N/A     84  54  34 SE16G22     N/A
COLORADO BEND    N/A     81  57  44 SW13        N/A
$$

SUPPLEMENTAL OBSERVATIONS (EAST)

CITY           SKY/WX    TMP DP  RH WIND       PRES   REMARKS
CLARKSVILLE      N/A     73  55  53 E7          N/A
TEXARKANA        N/A     79  57  47 SE2         N/A
LINDEN           N/A     81  55  41 S2          N/A
CADDO LAKE       N/A     82  57  42 SW2         N/A
GILMER           N/A     81  59  47 SE7         N/A
HENDERSON        N/A     79  59  50 SE6G14      N/A
LUFKIN           N/A     82  55  39 MISG        N/A
S SABINE NF      N/A     82  57  42 S5          N/A
$$

SUPPLEMENTAL OBSERVATIONS ARE A COLLECTION OF AUTOMATED INSTRUMENTS
THAT ARE MAINTAINED BY A VARIETY OF FEDERAL AND STATE AGENCIES.
CERTAIN ELEMENTS...SUCH AS HUMIDITY VALUES AND SUSTAINED WIND
SPEEDS...MAY BE APPROXIMATED.





USA.gov is the U.S. government's official web portal to all federal, state and local government web resources and services.